Location: Binningen
(47.7924°N, 8.7261°E)
Time: 19:42:29
(UTC+00:00)

Cosmos 2298 Rocket - Pass Details

Date: 17 May 2021
Orbit: 776 x 784 km, 74.0° (Epoch: 21 June)

Event Time Altitude Azimuth Distance (km) Brightness Sun altitude
Exits shadow 22:36:28 33° 223° (SW) 1,282 4.8 -21.9°
Maximum altitude 22:38:48 66° 295° (WNW) 848 4.3 -22.0°
Drops below altitude 10° 22:44:05 10° 18° (NNE) 2,336 7.4 -22.1°
Sets 22:46:30 0° 21° (NNE) 3,268 8.2 -22.2°
